Current Weather Conditions: station 62168

sailwx.info

Last reported at 2020-Feb-23 15:54 UTC.
Time now 2020-Feb-28 16:05 UTC

Location: N 58°00' E 001°06'.
View on Google Maps.

See reports from other nearby stations

  
Tides and Currents Weather Stations Pressure Air Temp Water Temp Dewpoint Dewpoint Depression Visibility Wind Speed Wind Dir Waves Ship Positions
date/time (UTC)wind fromknots sea level pressurealtimeterstation pressurevisibilityair tempwater tempwave heightnotes
2020-Feb-28 15:00 200 10.8 6.1 2.1
2020-Feb-28 14:00 210 10.8 5.9 2.1
2020-Feb-28 13:00 220 10.8 6.0 2.1
2020-Feb-28 12:00 230 10.8 6.2 2.2
2020-Feb-28 11:00 240 10.8 6.0 2.2
2020-Feb-28 10:00 250 10.8 5.7 2.3
2020-Feb-28 09:00 240 10.8 5.8 2.2
2020-Feb-28 08:00 250 10.8 5.6 2.5
2020-Feb-28 07:00 250 10.8 5.4 2.6
2020-Feb-28 06:00 280 10.8 5.7 2.6
2020-Feb-28 05:00 280 10.8 5.8 2.8
2020-Feb-28 04:00 290 10.8 5.9 3.0
2020-Feb-28 03:00 300 10.8 5.9 3.3
2020-Feb-28 02:00 300 10.8 6.0 3.4
2020-Feb-28 01:00 300 10.8 6.0 3.2
2020-Feb-28 00:00 310 10.8 6.1 3.5
2020-Feb-27 23:00 300 10.8 6.2 3.4
2020-Feb-27 22:00 300 10.8 6.2 3.5
2020-Feb-27 21:00 290 5.4 5.8 3.0
2020-Feb-27 20:00 300 10.8 5.7 3.1
2020-Feb-27 19:00 300 10.8 5.7 2.8
2020-Feb-27 18:00 320 10.8 5.7 2.7
2020-Feb-27 17:00 300 10.8 5.0 2.6
2020-Feb-27 16:00 290 10.8 4.7 2.3
2020-Feb-27 15:00 330 10.8 4.9 1.8
2020-Feb-27 14:00 290 10.8 3.4 2.0
2020-Feb-27 13:00 270 10.8 3.4 1.9
2020-Feb-27 12:00 270 10.8 4.6 1.7
2020-Feb-27 11:00 250 10.8 4.6 1.7
2020-Feb-27 10:00 260 10.8 4.2 1.8
2020-Feb-27 09:00 260 10.8 4.2 1.8
2020-Feb-27 08:00 260 10.8 4.2 1.8
2020-Feb-27 07:00 260 10.8 4.1 1.7
2020-Feb-27 06:00 260 10.8 4.2 1.7
2020-Feb-27 05:00 270 10.8 4.0 2.0
2020-Feb-27 04:00 260 10.8 4.0 1.8
2020-Feb-27 03:00 260 10.8 4.1 1.9
2020-Feb-27 02:00 260 10.8 4.1 2.0
2020-Feb-27 01:00 260 10.8 4.1 2.1
2020-Feb-27 00:00 270 10.8 4.1 2.2
2020-Feb-26 23:00 270 10.8 4.1 2.3
2020-Feb-26 22:00 270 10.8 3.4 2.1
2020-Feb-26 21:00 280 10.8 4.6 2.0
2020-Feb-26 20:00 300 10.8 4.2 2.0
2020-Feb-26 19:00 280 5.4 3.3 2.0
2020-Feb-26 18:00 320 5.4 3.0 1.9
2020-Feb-26 17:00 280 10.8 4.2 1.8
2020-Feb-26 16:00 300 10.8 4.8 1.6